,,PA_Meas_PMT16A,,PR_Meas_QMR101_102,,RH_Meas_QMH101,,SR_Meas_QMS101,,TA_Meas_QMH101,,GenWind,,GenWind,
time,status,PA,status,PR,status,RH,status,SR,status,TA,status,DirAvg,status,SpdAvg,
2010-01-30, 00:00:04,VALID,919.603,VALID,0,VALID,97.8008,VALID,0.107441,VALID,19.6218,VALID,125,VALID,0.591406,
2010-01-30, 00:01:04,VALID,919.592,VALID,0,VALID,97.816,VALID,0.107441,VALID,19.6413,VALID,156,VALID,1.03711,
2010-01-30, 00:02:04,VALID,919.571,VALID,0,VALID,97.816,VALID,0,VALID,19.6608,VALID,156,VALID,0.578125,
2010-01-30, 00:03:04,VALID,919.57,VALID,0,VALID,97.8237,VALID,0,VALID,19.6413,VALID,156,VALID,1.56836,
2010-01-30, 00:04:04,VALID,919.534,VALID,0.2,VALID,97.816,VALID,0.107441,VALID,19.6413,VALID,157,VALID,1.23555,
2010-01-30, 00:05:04,VALID,919.505,VALID,0,VALID,97.7779,VALID,0,VALID,19.6218,VALID,158,VALID,0.910156,
2010-01-30, 00:06:04,VALID,919.483,VALID,0,VALID,97.8008,VALID,0.107441,VALID,19.6203,VALID,144,VALID,1.27656,
2010-01-30, 00:07:04,VALID,919.498,VALID,0,VALID,97.7856,VALID,0.107441,VALID,19.6413,VALID,134,VALID,1.84336,
2010-01-30, 00:08:04,VALID,919.466,VALID,0,VALID,97.8008,VALID,0.107441,VALID,19.6218,VALID,131,VALID,2.04883,
2010-01-30, 00:09:04,VALID,919.444,VALID,0,VALID,97.816,VALID,0,VALID,19.6218,VALID,118,VALID,1.08672,
2010-01-30, 00:10:04,VALID,919.434,VALID,0,VALID,97.8084,VALID,0,VALID,19.6428,VALID,124,VALID,1.59805,
2010-01-30, 00:11:04,VALID,919.398,VALID,0,VALID,97.8084,VALID,0.107441,VALID,19.6023,VALID,146,VALID,1.72891,
2010-01-30, 00:12:04,VALID,919.371,VALID,0,VALID,97.7779,VALID,0,VALID,19.6218,VALID,134,VALID,1.38164,
2010-01-30, 00:13:04,VALID,919.383,VALID,0.2,VALID,97.816,VALID,0,VALID,19.6023,VALID,117,VALID,1.1543,
2010-01-30, 00:14:04,VALID,919.374,VALID,0,VALID,97.7856,VALID,0.107441,VALID,19.6218,VALID,124,VALID,1.13828,
2010-01-30, 00:15:04,VALID,919.37,VALID,0,VALID,97.8008,VALID,0.107441,VALID,19.6023,VALID,83,VALID,0.794531,
2010-01-30, 00:16:04,VALID,919.353,VALID,0,VALID,97.8237,VALID,0,VALID,19.6023,VALID,84,VALID,1.65273,
2010-01-30, 00:17:04,VALID,919.363,VALID,0,VALID,97.8008,VALID,0,VALID,19.6023,VALID,75,VALID,1.15078,
2010-01-30, 00:18:04,VALID,919.335,VALID,0,VALID,97.8237,VALID,0,VALID,19.6023,VALID,129,VALID,0.820313,
2010-01-30, 00:19:04,VALID,919.363,VALID,0,VALID,97.8008,VALID,0,VALID,19.5828,VALID,104,VALID,1.23242,
2010-01-30, 00:20:04,VALID,919.337,VALID,0,VALID,97.7932,VALID,0,VALID,19.6023,VALID,84,VALID,1.03789,
2010-01-30, 00:21:04,VALID,919.307,VALID,0,VALID,97.8008,VALID,0,VALID,19.5828,VALID,85,VALID,0.958594,
2010-01-30, 00:22:04,VALID,919.302,VALID,0,VALID,97.8008,VALID,0,VALID,19.6023,VALID,85,VALID,1.4082,
2010-01-30, 00:23:04,VALID,919.32,VALID,0,VALID,97.8237,VALID,0,VALID,19.6023,VALID,85,VALID,0.848047,
2010-01-30, 00:24:04,VALID,919.304,VALID,0,VALID,97.816,VALID,0,VALID,19.6038,VALID,85,VALID,0.870703,
2010-01-30, 00:25:04,VALID,919.293,VALID,0,VALID,97.7856,VALID,0,VALID,19.5828,VALID,85,VALID,0.774609,
2010-01-30, 00:26:04,VALID,919.256,VALID,0,VALID,97.8008,VALID,0,VALID,19.5828,VALID,122,VALID,1.56406,
2010-01-30, 00:27:04,VALID,919.288,VALID,0.2,VALID,97.7856,VALID,0,VALID,19.5828,VALID,150,VALID,1.15703,
2010-01-30, 00:28:04,VALID,919.268,VALID,0,VALID,97.8237,VALID,0.107441,VALID,19.6023,VALID,152,VALID,0.885547,
2010-01-30, 00:29:04,VALID,919.264,VALID,0,VALID,97.8008,VALID,0.107441,VALID,19.6023,VALID,152,VALID,1.05469,
2010-01-30, 00:30:04,VALID,919.268,VALID,0,VALID,97.8008,VALID,0,VALID,19.5828,VALID,152,VALID,0.607813,
2010-01-30, 00:31:04,VALID,919.28,VALID,0,VALID,97.8084,VALID,0.107441,VALID,19.6023,VALID,152,VALID,0.69375,
2010-01-30, 00:32:04,VALID,919.261,VALID,0,VALID,97.8008,VALID,0.107441,VALID,19.6218,VALID,153,VALID,0.414844,
2010-01-30, 00:33:04,VALID,919.236,VALID,0,VALID,97.8084,VALID,0,VALID,19.6218,VALID,175,VALID,0.510938,
2010-01-30, 00:34:04,VALID,919.26,VALID,0,VALID,97.8084,VALID,0,VALID,19.6218,VALID,175,VALID,0.652344,
2010-01-30, 00:35:04,VALID,919.242,VALID,0,VALID,97.8008,VALID,0,VALID,19.6218,VALID,175,VALID,0.6625,
2010-01-30, 00:36:04,VALID,919.255,VALID,0,VALID,97.7932,VALID,0,VALID,19.6218,VALID,175,VALID,0.779688,
2010-01-30, 00:37:04,VALID,919.302,VALID,0,VALID,97.8084,VALID,0,VALID,19.6428,VALID,175,VALID,0.833203,
2010-01-30, 00:38:04,VALID,919.258,VALID,0,VALID,97.7779,VALID,0,VALID,19.6218,VALID,175,VALID,0.802734,
2010-01-30, 00:39:04,VALID,919.268,VALID,0,VALID,97.8008,VALID,0,VALID,19.6218,VALID,175,VALID,0.511719,
2010-01-30, 00:40:04,VALID,919.252,VALID,0,VALID,97.8084,VALID,0,VALID,19.6413,VALID,175,VALID,0.505078,
2010-01-30, 00:41:04,VALID,919.257,VALID,0,VALID,97.8008,VALID,0,VALID,19.6623,VALID,175,VALID,0.382031,
2010-01-30, 00:42:04,VALID,919.256,VALID,0,VALID,97.7932,VALID,0,VALID,19.6413,VALID,175,VALID,0.4125,
2010-01-30, 00:43:04,VALID,919.249,VALID,0,VALID,97.816,VALID,0,VALID,19.6023,VALID,175,VALID,0.798437,
2010-01-30, 00:44:04,VALID,919.237,VALID,0,VALID,97.8084,VALID,0,VALID,19.5828,VALID,175,VALID,0.554688,
2010-01-30, 00:45:04,VALID,919.238,VALID,0,VALID,97.7932,VALID,0,VALID,19.5828,VALID,175,VALID,0.779688,
2010-01-30, 00:46:04,VALID,919.189,VALID,0,VALID,97.8084,VALID,0,VALID,19.5633,VALID,176,VALID,0.826172,
2010-01-30, 00:47:04,VALID,919.207,VALID,0,VALID,97.816,VALID,0,VALID,19.5438,VALID,176,VALID,0.661328,
2010-01-30, 00:48:04,VALID,919.201,VALID,0,VALID,97.8237,VALID,0,VALID,19.5438,VALID,176,VALID,0.428125,
2010-01-30, 00:49:04,VALID,919.181,VALID,0,VALID,97.8084,VALID,0,VALID,19.6038,VALID,176,VALID,0.428516,
2010-01-30, 00:50:04,VALID,919.198,VALID,0,VALID,97.8237,VALID,0,VALID,19.5828,VALID,176,VALID,0.434375,
2010-01-30, 00:51:04,VALID,919.149,VALID,0,VALID,97.8008,VALID,0,VALID,19.6233,VALID,176,VALID,0.303516,
2010-01-30, 00:52:04,VALID,919.133,VALID,0,VALID,97.8084,VALID,0,VALID,19.6023,VALID,176,VALID,0.558203,
2010-01-30, 00:53:04,VALID,919.139,VALID,0,VALID,97.8008,VALID,0,VALID,19.6038,VALID,176,VALID,0.715625,
2010-01-30, 00:54:04,VALID,919.122,VALID,0,VALID,97.8084,VALID,0,VALID,19.6038,VALID,176,VALID,0.456641,
2010-01-30, 00:55:04,VALID,919.144,VALID,0,VALID,97.8084,VALID,0,VALID,19.6023,VALID,176,VALID,0.666797,
2010-01-30, 00:56:04,VALID,919.137,VALID,0,VALID,97.8237,VALID,0,VALID,19.5828,VALID,176,VALID,0.676172,
2010-01-30, 00:57:04,VALID,919.117,VALID,0,VALID,97.7932,VALID,0,VALID,19.5828,VALID,176,VALID,0.501172,
2010-01-30, 00:58:04,VALID,919.101,VALID,0,VALID,97.816,VALID,0,VALID,19.5633,VALID,176,VALID,1.01445,
2010-01-30, 00:59:04,VALID,919.139,VALID,0,VALID,97.8008,VALID,0.107441,VALID,19.5828,VALID,161,VALID,0.643359,
2010-01-30, 01:00:04,VALID,919.117,VALID,0,VALID,97.8084,VALID,0,VALID,19.5633,VALID,154,VALID,0.762109,
2010-01-30, 01:01:04,VALID,919.107,VALID,0,VALID,97.7932,VALID,0,VALID,19.5633,VALID,154,VALID,0.613281,
2010-01-30, 01:02:04,VALID,919.117,VALID,0,VALID,97.8237,VALID,0,VALID,19.5633,VALID,154,VALID,0.825391,
2010-01-30, 01:03:04,VALID,919.082,VALID,0,VALID,97.8084,VALID,0,VALID,19.5438,VALID,154,VALID,0.536719,
2010-01-30, 01:04:04,VALID,919.09,VALID,0,VALID,97.7932,VALID,0,VALID,19.5633,VALID,154,VALID,0.813672,
2010-01-30, 01:05:04,VALID,919.069,VALID,0,VALID,97.8084,VALID,0,VALID,19.5438,VALID,154,VALID,0.75625,
2010-01-30, 01:06:04,VALID,919.082,VALID,0,VALID,97.8008,VALID,0,VALID,19.5243,VALID,154,VALID,0.762109,
2010-01-30, 01:07:04,VALID,919.052,VALID,0,VALID,97.8008,VALID,0,VALID,19.5243,VALID,154,VALID,0.676953,
2010-01-30, 01:08:04,VALID,919.047,VALID,0,VALID,97.816,VALID,0,VALID,19.4853,VALID,154,VALID,0.727734,
2010-01-30, 01:09:04,VALID,919.04,VALID,0,VALID,97.8084,VALID,0,VALID,19.5063,VALID,154,VALID,0.814453,
2010-01-30, 01:10:04,VALID,919.026,VALID,0,VALID,97.8389,VALID,0,VALID,19.4853,VALID,154,VALID,0.836328,
2010-01-30, 01:11:04,VALID,919.008,VALID,0,VALID,97.8008,VALID,0,VALID,19.4868,VALID,154,VALID,0.786719,
2010-01-30, 01:12:04,VALID,918.985,VALID,0,VALID,97.8008,VALID,0,VALID,19.4868,VALID,154,VALID,0.829297,
2010-01-30, 01:13:04,VALID,918.984,VALID,0,VALID,97.8084,VALID,0,VALID,19.4673,VALID,154,VALID,0.775391,
2010-01-30, 01:14:04,VALID,918.949,VALID,0,VALID,97.8084,VALID,0,VALID,19.4673,VALID,154,VALID,0.929688,
2010-01-30, 01:15:04,VALID,918.94,VALID,0,VALID,97.8237,VALID,0,VALID,19.4463,VALID,154,VALID,0.85,
2010-01-30, 01:16:04,VALID,918.944,VALID,0,VALID,97.816,VALID,0,VALID,19.4673,VALID,153,VALID,0.896875,
2010-01-30, 01:17:04,VALID,918.938,VALID,0,VALID,97.8313,VALID,0,VALID,19.4658,VALID,153,VALID,0.592969,
2010-01-30, 01:18:04,VALID,918.915,VALID,0,VALID,97.816,VALID,0,VALID,19.4868,VALID,153,VALID,0.747656,
2010-01-30, 01:19:04,VALID,918.913,VALID,0,VALID,97.816,VALID,0,VALID,19.4658,VALID,153,VALID,0.803906,
2010-01-30, 01:20:04,VALID,918.93,VALID,0,VALID,97.8237,VALID,0,VALID,19.4658,VALID,153,VALID,0.76875,
2010-01-30, 01:21:04,VALID,918.867,VALID,0,VALID,97.8389,VALID,0,VALID,19.4673,VALID,153,VALID,0.674219,
2010-01-30, 01:22:04,VALID,918.898,VALID,0,VALID,97.8237,VALID,0,VALID,19.4463,VALID,153,VALID,0.675391,
2010-01-30, 01:23:04,VALID,918.875,VALID,0,VALID,97.8313,VALID,0,VALID,19.4268,VALID,153,VALID,0.69375,
2010-01-30, 01:24:04,VALID,918.885,VALID,0,VALID,97.8313,VALID,0,VALID,19.4283,VALID,153,VALID,0.623828,
2010-01-30, 01:25:04,VALID,918.862,VALID,0,VALID,97.8465,VALID,0,VALID,19.4268,VALID,153,VALID,0.637109,
2010-01-30, 01:26:04,VALID,918.872,VALID,0,VALID,97.8237,VALID,0,VALID,19.4268,VALID,153,VALID,0.635938,
2010-01-30, 01:27:04,VALID,918.845,VALID,0,VALID,97.816,VALID,0,VALID,19.4268,VALID,153,VALID,0.68125,
2010-01-30, 01:28:04,VALID,918.838,VALID,0,VALID,97.8237,VALID,0,VALID,19.4074,VALID,153,VALID,0.598437,
2010-01-30, 01:29:04,VALID,918.844,VALID,0,VALID,97.8389,VALID,0,VALID,19.4268,VALID,153,VALID,1.04102,
2010-01-30, 01:30:04,VALID,918.836,VALID,0,VALID,97.8313,VALID,0,VALID,19.4268,VALID,153,VALID,0.869141,
2010-01-30, 01:31:04,VALID,918.852,VALID,0,VALID,97.816,VALID,0,VALID,19.4268,VALID,153,VALID,0.927734,
2010-01-30, 01:32:04,VALID,918.82,VALID,0,VALID,97.816,VALID,0,VALID,19.4463,VALID,153,VALID,0.926562,
2010-01-30, 01:33:04,VALID,918.807,VALID,0,VALID,97.8237,VALID,0,VALID,19.4673,VALID,152,VALID,1.13555,
2010-01-30, 01:34:04,VALID,918.819,VALID,0,VALID,97.8542,VALID,0,VALID,19.4463,VALID,152,VALID,0.776172,
2010-01-30, 01:35:04,VALID,918.793,VALID,0,VALID,97.8465,VALID,0,VALID,19.4268,VALID,152,VALID,0.771484,
2010-01-30, 01:36:04,VALID,918.79,VALID,0,VALID,97.8389,VALID,0,VALID,19.4463,VALID,152,VALID,0.803516,
2010-01-30, 01:37:04,VALID,918.775,VALID,0,VALID,97.8389,VALID,0,VALID,19.4268,VALID,152,VALID,0.767969,
2010-01-30, 01:38:04,VALID,918.778,VALID,0,VALID,97.8389,VALID,0,VALID,19.4463,VALID,152,VALID,0.605469,
2010-01-30, 01:39:04,VALID,918.758,VALID,0,VALID,97.8237,VALID,0,VALID,19.4268,VALID,152,VALID,0.741016,
2010-01-30, 01:40:04,VALID,918.763,VALID,0,VALID,97.8389,VALID,0,VALID,19.4268,VALID,152,VALID,0.590625,
2010-01-30, 01:41:04,VALID,918.77,VALID,0,VALID,97.8237,VALID,0,VALID,19.4463,VALID,152,VALID,0.705859,
2010-01-30, 01:42:04,VALID,918.776,VALID,0,VALID,97.8313,VALID,0,VALID,19.4268,VALID,152,VALID,0.910937,
2010-01-30, 01:43:04,VALID,918.775,VALID,0,VALID,97.8542,VALID,0,VALID,19.4463,VALID,152,VALID,0.925781,
2010-01-30, 01:44:04,VALID,918.737,VALID,0,VALID,97.8465,VALID,0,VALID,19.4478,VALID,152,VALID,0.939062,
2010-01-30, 01:45:04,VALID,918.742,VALID,0,VALID,97.8389,VALID,0,VALID,19.4463,VALID,152,VALID,1.06406,
2010-01-30, 01:46:04,VALID,918.704,VALID,0,VALID,97.816,VALID,0,VALID,19.4463,VALID,152,VALID,1.03984,
2010-01-30, 01:47:04,VALID,918.716,VALID,0,VALID,97.8313,VALID,0,VALID,19.4658,VALID,152,VALID,0.745703,
2010-01-30, 01:48:04,VALID,918.713,VALID,0,VALID,97.8465,VALID,0,VALID,19.4658,VALID,152,VALID,0.862891,
2010-01-30, 01:49:04,VALID,918.704,VALID,0.2,VALID,97.8618,VALID,0,VALID,19.4658,VALID,151,VALID,0.916406,
2010-01-30, 01:50:04,VALID,918.671,VALID,0,VALID,97.8313,VALID,0,VALID,19.4658,VALID,151,VALID,0.898438,
2010-01-30, 01:51:04,VALID,918.708,VALID,0,VALID,97.8313,VALID,0,VALID,19.4868,VALID,151,VALID,0.588672,
2010-01-30, 01:52:04,VALID,918.723,VALID,0,VALID,97.8389,VALID,0,VALID,19.4658,VALID,151,VALID,0.532031,
2010-01-30, 01:53:04,VALID,918.709,VALID,0,VALID,97.8389,VALID,0,VALID,19.4868,VALID,151,VALID,0.267188,
2010-01-30, 01:54:04,VALID,918.721,VALID,0,VALID,97.8313,VALID,0,VALID,19.4658,VALID,151,VALID,0.253125,
2010-01-30, 01:55:04,VALID,918.728,VALID,0,VALID,97.8313,VALID,0,VALID,19.4853,VALID,151,VALID,0.155859,
2010-01-30, 01:56:04,VALID,918.718,VALID,0,VALID,97.816,VALID,0,VALID,19.4853,VALID,151,VALID,0.582422,
2010-01-30, 01:57:04,VALID,918.717,VALID,0,VALID,97.8313,VALID,0,VALID,19.4853,VALID,151,VALID,0.441797,
2010-01-30, 01:58:04,VALID,918.69,VALID,0,VALID,97.8313,VALID,0,VALID,19.4853,VALID,151,VALID,0.421875,
2010-01-30, 01:59:04,VALID,918.68,VALID,0,VALID,97.8465,VALID,0,VALID,19.4853,VALID,151,VALID,0.153906,
2010-01-30, 02:00:04,VALID,918.689,VALID,0,VALID,97.8542,VALID,0,VALID,19.5063,VALID,151,VALID,0.233594,
2010-01-30, 02:01:04,VALID,918.644,VALID,0,VALID,97.8542,VALID,0,VALID,19.4853,VALID,151,VALID,0.156641,
2010-01-30, 02:02:04,VALID,918.659,VALID,0,VALID,97.8465,VALID,0,VALID,19.4853,VALID,151,VALID,0,
2010-01-30, 02:03:04,VALID,918.621,VALID,0,VALID,97.8389,VALID,0,VALID,19.4658,VALID,151,VALID,0,
2010-01-30, 02:04:04,VALID,918.602,VALID,0,VALID,97.8389,VALID,0,VALID,19.4658,VALID,151,VALID,0,
2010-01-30, 02:05:04,VALID,918.592,VALID,0,VALID,97.8389,VALID,0,VALID,19.4658,VALID,151,VALID,0.0765625,
2010-01-30, 02:06:04,VALID,918.584,VALID,0,VALID,97.8465,VALID,0,VALID,19.4658,VALID,151,VALID,0.466016,
2010-01-30, 02:07:04,VALID,918.552,VALID,0,VALID,97.8465,VALID,0,VALID,19.4463,VALID,151,VALID,0.551562,
2010-01-30, 02:08:04,VALID,918.538,VALID,0,VALID,97.8465,VALID,0,VALID,19.4478,VALID,151,VALID,0.453516,
2010-01-30, 02:09:04,VALID,918.541,VALID,0,VALID,97.8313,VALID,0,VALID,19.4268,VALID,151,VALID,0.406641,
2010-01-30, 02:10:04,VALID,918.539,VALID,0,VALID,97.8389,VALID,0,VALID,19.4283,VALID,151,VALID,0.483984,
2010-01-30, 02:11:04,VALID,918.522,VALID,0,VALID,97.8542,VALID,0,VALID,19.4074,VALID,151,VALID,0.364844,
2010-01-30, 02:12:04,VALID,918.503,VALID,0,VALID,97.8542,VALID,0,VALID,19.3669,VALID,151,VALID,0.287891,
2010-01-30, 02:13:04,VALID,918.493,VALID,0,VALID,97.8618,VALID,0.107441,VALID,19.3879,VALID,151,VALID,0.527344,
2010-01-30, 02:14:04,VALID,918.473,VALID,0,VALID,97.8313,VALID,0,VALID,19.3879,VALID,151,VALID,0.358203,
2010-01-30, 02:15:04,VALID,918.441,VALID,0,VALID,97.8465,VALID,0,VALID,19.4074,VALID,151,VALID,0.730469,
2010-01-30, 02:16:04,VALID,918.393,VALID,0,VALID,97.8389,VALID,0,VALID,19.4074,VALID,151,VALID,0.666016,
2010-01-30, 02:17:04,VALID,918.393,VALID,0,VALID,97.8694,VALID,0,VALID,19.4268,VALID,151,VALID,0.761719,
2010-01-30, 02:18:04,VALID,918.373,VALID,0,VALID,97.8618,VALID,0,VALID,19.4059,VALID,151,VALID,0.587891,
2010-01-30, 02:19:04,VALID,918.388,VALID,0,VALID,97.8542,VALID,0,VALID,19.4074,VALID,151,VALID,0.548828,
2010-01-30, 02:20:04,VALID,918.365,VALID,0,VALID,97.8313,VALID,0,VALID,19.4074,VALID,151,VALID,0.815234,
2010-01-30, 02:21:04,VALID,918.368,VALID,0,VALID,97.8542,VALID,0,VALID,19.4074,VALID,151,VALID,0.281641,
2010-01-30, 02:22:04,VALID,918.366,VALID,0,VALID,97.8694,VALID,0,VALID,19.4074,VALID,151,VALID,0.366797,
2010-01-30, 02:23:04,VALID,918.377,VALID,0,VALID,97.8465,VALID,0,VALID,19.4074,VALID,151,VALID,0.536328,
2010-01-30, 02:24:04,VALID,918.357,VALID,0,VALID,97.8618,VALID,0,VALID,19.4074,VALID,151,VALID,0.280469,
2010-01-30, 02:25:04,VALID,918.351,VALID,0,VALID,97.8618,VALID,0.107441,VALID,19.4074,VALID,151,VALID,0.246094,
2010-01-30, 02:26:04,VALID,918.315,VALID,0,VALID,97.8618,VALID,0,VALID,19.4268,VALID,151,VALID,0.0242187,
2010-01-30, 02:27:04,VALID,918.305,VALID,0,VALID,97.8465,VALID,0,VALID,19.4268,VALID,151,VALID,0.326562,
2010-01-30, 02:28:04,VALID,918.289,VALID,0,VALID,97.877,VALID,0,VALID,19.4268,VALID,151,VALID,0.0308594,
2010-01-30, 02:29:04,VALID,918.287,VALID,0,VALID,97.8389,VALID,0,VALID,19.4268,VALID,151,VALID,0,
2010-01-30, 02:30:04,VALID,918.276,VALID,0,VALID,97.8694,VALID,0,VALID,19.4463,VALID,151,VALID,0.304297,
2010-01-30, 02:31:04,VALID,918.249,VALID,0,VALID,97.8389,VALID,0,VALID,19.4268,VALID,151,VALID,0.519531,
2010-01-30, 02:32:04,VALID,918.226,VALID,0,VALID,97.8542,VALID,0,VALID,19.4463,VALID,151,VALID,0.685547,
2010-01-30, 02:33:04,VALID,918.246,VALID,0,VALID,97.8542,VALID,0,VALID,19.4673,VALID,151,VALID,0.463281,
2010-01-30, 02:34:04,VALID,918.256,VALID,0,VALID,97.8618,VALID,0,VALID,19.4268,VALID,151,VALID,0.422266,
2010-01-30, 02:35:04,VALID,918.206,VALID,0,VALID,97.8389,VALID,0,VALID,19.4268,VALID,151,VALID,0.583594,
2010-01-30, 02:36:04,VALID,918.216,VALID,0,VALID,97.8542,VALID,0,VALID,19.4268,VALID,151,VALID,0.352344,
2010-01-30, 02:37:04,VALID,918.209,VALID,0,VALID,97.8542,VALID,0,VALID,19.4268,VALID,151,VALID,0.216406,
2010-01-30, 02:38:04,VALID,918.214,VALID,0,VALID,97.8542,VALID,0,VALID,19.4268,VALID,151,VALID,0,
2010-01-30, 02:39:04,VALID,918.192,VALID,0,VALID,97.8465,VALID,0,VALID,19.4268,VALID,151,VALID,0.0164062,
2010-01-30, 02:40:04,VALID,918.211,VALID,0,VALID,97.8465,VALID,0,VALID,19.4074,VALID,151,VALID,0,
2010-01-30, 02:41:04,VALID,918.208,VALID,0,VALID,97.8542,VALID,0,VALID,19.3879,VALID,151,VALID,0,
2010-01-30, 02:42:04,VALID,918.195,VALID,0,VALID,97.8618,VALID,0,VALID,19.3879,VALID,151,VALID,0,
2010-01-30, 02:43:04,VALID,918.216,VALID,0,VALID,97.8542,VALID,0,VALID,19.4074,VALID,151,VALID,0,
2010-01-30, 02:44:04,VALID,918.196,VALID,0,VALID,97.8465,VALID,0,VALID,19.4088,VALID,151,VALID,0,
2010-01-30, 02:45:04,VALID,918.193,VALID,0,VALID,97.8618,VALID,0,VALID,19.3684,VALID,151,VALID,0,
2010-01-30, 02:46:04,VALID,918.237,VALID,0,VALID,97.8694,VALID,0.107441,VALID,19.3684,VALID,151,VALID,0.398047,
2010-01-30, 02:47:04,VALID,918.228,VALID,0,VALID,97.8465,VALID,0,VALID,19.3684,VALID,151,VALID,0.647656,
2010-01-30, 02:48:04,VALID,918.231,VALID,0,VALID,97.8542,VALID,0,VALID,19.3684,VALID,151,VALID,0.701953,
2010-01-30, 02:49:04,VALID,918.225,VALID,0,VALID,97.8618,VALID,0,VALID,19.3503,VALID,151,VALID,0.825781,
2010-01-30, 02:50:04,VALID,918.227,VALID,0,VALID,97.8542,VALID,0.107441,VALID,19.3294,VALID,151,VALID,0.6875,
2010-01-30, 02:51:04,VALID,918.256,VALID,0,VALID,97.8694,VALID,0,VALID,19.3294,VALID,151,VALID,0.648828,
2010-01-30, 02:52:04,VALID,918.244,VALID,0,VALID,97.877,VALID,0,VALID,19.3099,VALID,151,VALID,0.843359,
2010-01-30, 02:53:04,VALID,918.242,VALID,0,VALID,97.8847,VALID,0,VALID,19.3099,VALID,151,VALID,0.664063,
2010-01-30, 02:54:04,VALID,918.206,VALID,0,VALID,97.8694,VALID,0,VALID,19.3099,VALID,151,VALID,0.788281,
2010-01-30, 02:55:04,VALID,918.202,VALID,0,VALID,97.8694,VALID,0,VALID,19.3099,VALID,151,VALID,0.840234,
2010-01-30, 02:56:04,VALID,918.207,VALID,0,VALID,97.877,VALID,0,VALID,19.3099,VALID,151,VALID,0.975781,
2010-01-30, 02:57:04,VALID,918.17,VALID,0,VALID,97.8694,VALID,0,VALID,19.2904,VALID,151,VALID,0.694141,
2010-01-30, 02:58:04,VALID,918.179,VALID,0,VALID,97.8618,VALID,0,VALID,19.2904,VALID,151,VALID,0.482031,
2010-01-30, 02:59:04,VALID,918.137,VALID,0,VALID,97.8694,VALID,0,VALID,19.2709,VALID,151,VALID,0.655859,
2010-01-30, 03:00:04,VALID,918.147,VALID,0,VALID,97.8847,VALID,0,VALID,19.3113,VALID,151,VALID,0.730078,
2010-01-30, 03:01:04,VALID,918.128,VALID,0,VALID,97.8694,VALID,0,VALID,19.3099,VALID,151,VALID,0.913672,
2010-01-30, 03:02:04,VALID,918.115,VALID,0,VALID,97.877,VALID,0,VALID,19.3099,VALID,151,VALID,0.694531,
2010-01-30, 03:03:04,VALID,918.124,VALID,0,VALID,97.8618,VALID,0,VALID,19.3099,VALID,151,VALID,0.880859,
2010-01-30, 03:04:04,VALID,918.112,VALID,0,VALID,97.8923,VALID,0,VALID,19.2904,VALID,151,VALID,0.777344,
2010-01-30, 03:05:04,VALID,918.081,VALID,0,VALID,97.8847,VALID,0.107441,VALID,19.3099,VALID,151,VALID,0.610547,
2010-01-30, 03:06:04,VALID,918.091,VALID,0,VALID,97.8999,VALID,0,VALID,19.3099,VALID,151,VALID,0.763281,
2010-01-30, 03:07:04,VALID,918.087,VALID,0,VALID,97.877,VALID,0,VALID,19.3099,VALID,151,VALID,0.514844,
2010-01-30, 03:08:04,VALID,918.073,VALID,0,VALID,97.8694,VALID,0,VALID,19.3308,VALID,151,VALID,0.697266,
2010-01-30, 03:09:04,VALID,918.079,VALID,0,VALID,97.8694,VALID,0,VALID,19.3099,VALID,151,VALID,0.962891,
2010-01-30, 03:10:04,VALID,918.089,VALID,0,VALID,97.8923,VALID,0,VALID,19.3308,VALID,151,VALID,0.417578,
2010-01-30, 03:11:04,VALID,918.092,VALID,0,VALID,97.8847,VALID,0,VALID,19.3099,VALID,151,VALID,0.532031,
2010-01-30, 03:12:04,VALID,918.082,VALID,0,VALID,97.8923,VALID,0,VALID,19.3099,VALID,151,VALID,0.204297,
2010-01-30, 03:13:04,VALID,918.093,VALID,0,VALID,97.8847,VALID,0,VALID,19.2904,VALID,151,VALID,0,
2010-01-30, 03:14:04,VALID,918.099,VALID,0,VALID,97.877,VALID,0,VALID,19.3099,VALID,151,VALID,0.228125,
2010-01-30, 03:15:04,VALID,918.099,VALID,0,VALID,97.8999,VALID,0,VALID,19.3099,VALID,151,VALID,0,
2010-01-30, 03:16:04,VALID,918.095,VALID,0,VALID,97.8847,VALID,0,VALID,19.2904,VALID,151,VALID,0,
2010-01-30, 03:17:04,VALID,918.101,VALID,0,VALID,97.877,VALID,0,VALID,19.2904,VALID,151,VALID,0,
2010-01-30, 03:18:04,VALID,918.089,VALID,0,VALID,97.8923,VALID,0,VALID,19.2709,VALID,151,VALID,0.313672,
2010-01-30, 03:19:04,VALID,918.098,VALID,0,VALID,97.877,VALID,0,VALID,19.2918,VALID,151,VALID,0.253516,
2010-01-30, 03:20:04,VALID,918.059,VALID,0,VALID,97.8999,VALID,0,VALID,19.2709,VALID,151,VALID,0.285937,
2010-01-30, 03:21:04,VALID,918.071,VALID,0,VALID,97.8999,VALID,0,VALID,19.2319,VALID,151,VALID,0.253516,
2010-01-30, 03:22:04,VALID,918.043,VALID,0,VALID,97.8923,VALID,0,VALID,19.2319,VALID,151,VALID,0.266406,
2010-01-30, 03:23:04,VALID,918.055,VALID,0,VALID,97.8999,VALID,0,VALID,19.2319,VALID,151,VALID,0.184375,
2010-01-30, 03:24:04,VALID,918.053,VALID,0,VALID,97.8923,VALID,0,VALID,19.2319,VALID,151,VALID,0.217969,
2010-01-30, 03:25:04,VALID,918.068,VALID,0,VALID,97.877,VALID,0,VALID,19.2334,VALID,151,VALID,0,
2010-01-30, 03:26:04,VALID,918.049,VALID,0,VALID,97.877,VALID,0,VALID,19.2124,VALID,151,VALID,0,
2010-01-30, 03:27:04,VALID,918.059,VALID,0,VALID,97.8999,VALID,0,VALID,19.2124,VALID,151,VALID,0,
2010-01-30, 03:28:04,VALID,918.062,VALID,0,VALID,97.8923,VALID,0,VALID,19.2124,VALID,151,VALID,0,
2010-01-30, 03:29:04,VALID,918.105,VALID,0,VALID,97.8923,VALID,0,VALID,19.1929,VALID,151,VALID,0,
2010-01-30, 03:30:04,VALID,918.15,VALID,0,VALID,97.8999,VALID,0,VALID,19.2334,VALID,151,VALID,0.507031,
2010-01-30, 03:31:04,VALID,918.165,VALID,0,VALID,97.877,VALID,0,VALID,19.2334,VALID,151,VALID,0.673828,
2010-01-30, 03:32:04,VALID,918.151,VALID,0,VALID,97.8999,VALID,0,VALID,19.1929,VALID,151,VALID,0.393359,
2010-01-30, 03:33:04,VALID,918.193,VALID,0,VALID,97.8999,VALID,0,VALID,19.1734,VALID,151,VALID,0.427344,
2010-01-30, 03:34:04,VALID,918.192,VALID,0,VALID,97.8923,VALID,0,VALID,19.0759,VALID,151,VALID,0.640234,
2010-01-30, 03:35:04,VALID,918.194,VALID,0,VALID,97.9075,VALID,0.107441,VALID,19.0369,VALID,151,VALID,0.727734,
2010-01-30, 03:36:04,VALID,918.183,VALID,0,VALID,97.8923,VALID,0,VALID,19.0369,VALID,151,VALID,0.840234,
2010-01-30, 03:37:04,VALID,918.164,VALID,0,VALID,97.9075,VALID,0,VALID,19.0369,VALID,151,VALID,0.5875,
2010-01-30, 03:38:04,VALID,918.214,VALID,0,VALID,97.9075,VALID,0,VALID,19.0369,VALID,151,VALID,0.757031,
2010-01-30, 03:39:04,VALID,918.205,VALID,0,VALID,97.9152,VALID,0.107441,VALID,19.0564,VALID,151,VALID,0.638281,
2010-01-30, 03:40:04,VALID,918.263,VALID,0,VALID,97.9152,VALID,0,VALID,19.0759,VALID,151,VALID,0.622656,
2010-01-30, 03:41:04,VALID,918.254,VALID,0,VALID,97.938,VALID,0,VALID,19.0759,VALID,151,VALID,0.671875,
2010-01-30, 03:42:04,VALID,918.255,VALID,0,VALID,97.8999,VALID,0,VALID,19.0954,VALID,151,VALID,0.511328,
2010-01-30, 03:43:04,VALID,918.278,VALID,0,VALID,97.9152,VALID,0,VALID,19.1149,VALID,151,VALID,0.646875,
2010-01-30, 03:44:04,VALID,918.274,VALID,0,VALID,97.9228,VALID,0,VALID,19.0954,VALID,151,VALID,0.604688,